Location: Schommer Observatory
(40.5200°N, 74.4500°W)
Time: 15:38:04
(UTC-05:00)

OTV 5 (USA 277) - Pass Details

Date: 13 November 2017
Orbit: 404 x 417 km, 43.0° (Epoch: 07 September)

Event Time Altitude Azimuth Distance (km) Brightness Sun altitude
Exits shadow 06:02:02 11° 285° (WNW) 1,410 ? -8.0°
Maximum altitude 06:05:09 53° 3° (N) 501 ? -7.4°
Drops below altitude 10° 06:08:22 10° 82° (E) 1,456 ? -6.8°
Sets 06:10:30 0° 87° (E) 2,316 ? -6.5°
